| time (UTC) | temp C | wind direction | speed KPH | gust KPH | rain 1hr cm | rain 24hr cm | rain mn cm | humidity % | barometer mb |
| 20260510075527 | 22 | 24 | 3.2 | 6.4 | 0.00 | 0.00 | 0.00 | 99 | 1017.8 |
| 20260510075023 | 22 | 90 | 0.0 | 0.0 | 0.00 | 0.00 | 0.00 | 99 | 1017.7 |
| 20260510074521 | 22 | 78 | 0.0 | 3.2 | 0.00 | 0.00 | 0.00 | 99 | 1017.6 |
| 20260510074016 | 23 | 77 | 0.0 | 3.2 | 0.00 | 0.00 | 0.00 | 99 | 1017.2 |
| 20260510073513 | 23 | 90 | 0.0 | 3.2 | 0.00 | 0.00 | 0.00 | 99 | 1017.0 |
| 20260510073010 | 23 | 109 | 1.6 | 3.2 | 0.00 | 0.00 | 0.00 | 99 | 1016.9 |
| 20260510072506 | 23 | 66 | 0.0 | 3.2 | 0.00 | 0.00 | 0.00 | 99 | 1017.0 |
| 20260510072001 | 23 | 109 | 0.0 | 4.8 | 0.00 | 0.00 | 0.00 | 99 | 1016.6 |
| 20260510071458 | 23 | 97 | 0.0 | 3.2 | 0.00 | 0.00 | 0.00 | 99 | 1016.7 |
| 20260510070956 | 23 | 90 | 0.0 | 3.2 | 0.00 | 0.00 | 0.00 | 99 | 1016.6 |
| 20260510070453 | 23 | 106 | 1.6 | 4.8 | 0.00 | 0.00 | 0.00 | 99 | 1016.4 |
| 20260510065949 | 23 | 114 | 4.8 | 4.8 | 0.00 | 0.00 | 0.00 | 99 | 1016.3 |
| 20260510065446 | 23 | 109 | 0.0 | 4.8 | 0.00 | 0.00 | 0.00 | 99 | 1016.8 |
| 20260510064942 | 23 | 106 | 3.2 | 8.0 | 0.00 | 0.00 | 0.00 | 99 | 1017.9 |
| 20260510064440 | 23 | 59 | 3.2 | 8.0 | 0.00 | 0.00 | 0.00 | 99 | 1018.3 |
| 20260510063936 | 23 | 71 | 6.4 | 16.1 | 0.00 | 0.00 | 0.00 | 99 | 1018.2 |
| 20260510063432 | 23 | 105 | 4.8 | 14.5 | 0.00 | 0.00 | 0.00 | 99 | 1018.5 |
| 20260510062931 | 23 | 53 | 3.2 | 20.9 | 0.00 | 0.00 | 0.00 | 99 | 1018.6 |
| 20260510062430 | 23 | 28 | 6.4 | 12.9 | 0.00 | 0.00 | 0.00 | 99 | 1018.7 |
| 20260510061926 | 23 | 14 | 8.0 | 11.3 | 0.00 | 0.00 | 0.00 | 99 | 1018.5 |
| 20260510061423 | 23 | 121 | 3.2 | 12.9 | 0.00 | 0.00 | 0.00 | 99 | 1018.7 |
| 20260510060919 | 23 | 42 | 4.8 | 17.7 | 0.00 | 0.00 | 0.00 | 99 | 1018.6 |
| 20260510060416 | 23 | 17 | 8.0 | 9.7 | 0.00 | 0.00 | 0.00 | 99 | 1018.3 |
| 20260510055913 | 23 | 25 | 6.4 | 9.7 | 0.00 | 0.00 | 0.00 | 99 | 1017.6 |
| 20260510055408 | 23 | 75 | 0.0 | 3.2 | 0.00 | 0.00 | 0.00 | 99 | 1016.9 |
| 20260510054906 | 23 | 74 | 0.0 | 1.6 | 0.00 | 0.00 | 0.00 | 99 | 1016.6 |
| 20260510054402 | 23 | 98 | 0.0 | 3.2 | 0.00 | 0.00 | 0.00 | 99 | 1016.1 |
| 20260510053857 | 23 | 106 | 1.6 | 1.6 | 0.00 | 0.00 | 0.00 | 99 | 1016.2 |
| 20260510053353 | 23 | 106 | 0.0 | 1.6 | 0.00 | 0.00 | 0.00 | 99 | 1016.1 |
| 20260510052849 | 23 | 90 | 0.0 | 3.2 | 0.00 | 0.00 | 0.00 | 99 | 1016.0 |
| 20260510052345 | 23 | 84 | 0.0 | 3.2 | 0.00 | 0.00 | 0.00 | 99 | 1016.0 |
| 20260510051841 | 23 | 135 | 0.0 | 4.8 | 0.00 | 0.00 | 0.00 | 99 | 1015.7 |
| 20260510051338 | 23 | 98 | 0.0 | 4.8 | 0.00 | 0.00 | 0.00 | 99 | 1015.8 |
| 20260510050835 | 23 | 120 | 0.0 | 3.2 | 0.00 | 0.00 | 0.00 | 99 | 1015.7 |
| 20260510050332 | 23 | 98 | 0.0 | 1.6 | 0.00 | 0.00 | 0.00 | 99 | 1015.7 |
| 20260510045829 | 23 | 114 | 0.0 | 3.2 | 0.00 | 0.00 | 0.00 | 99 | 1015.8 |
| 20260510045326 | 23 | 106 | 0.0 | 3.2 | 0.00 | 0.00 | 0.00 | 99 | 1015.9 |
| 20260510044823 | 23 | 75 | 0.0 | 6.4 | 0.00 | 0.00 | 0.00 | 99 | 1015.6 |
| 20260510044320 | 23 | 114 | 4.8 | 4.8 | 0.00 | 0.00 | 0.00 | 99 | 1015.4 |
| 20260510043816 | 23 | 135 | 3.2 | 3.2 | 0.00 | 0.00 | 0.00 | 99 | 1015.2 |
| 20260510043312 | 23 | 246 | 0.0 | 3.2 | 0.00 | 0.00 | 0.00 | 99 | 1015.5 |
| 20260510042810 | 23 | 131 | 0.0 | 3.2 | 0.00 | 0.00 | 0.00 | 99 | 1015.0 |
| 20260510042307 | 22 | 114 | 0.0 | 0.0 | 0.00 | 0.00 | 0.00 | 99 | 1015.2 |
| 20260510041802 | 22 | 165 | 1.6 | 3.2 | 0.00 | 0.00 | 0.00 | 99 | 1015.5 |
| 20260510041259 | 22 | 106 | 1.6 | 3.2 | 0.00 | 0.00 | 0.00 | 99 | 1015.4 |
| 20260510040757 | 23 | 165 | 0.0 | 0.0 | 0.00 | 0.00 | 0.00 | 99 | 1015.5 |
| 20260510040248 | 23 | 90 | 0.0 | 0.0 | 0.00 | 0.00 | 0.00 | 99 | 1015.6 |
| 20260510035743 | 23 | 90 | 0.0 | 0.0 | 0.00 | 0.00 | 0.00 | 99 | 1015.7 |
| 20260510035239 | 23 | 90 | 0.0 | 0.0 | 0.00 | 0.00 | 0.00 | 99 | 1015.7 |
| 20260510034735 | 23 | 90 | 0.0 | 0.0 | 0.00 | 0.00 | 0.00 | 99 | 1015.7 |
| 20260510034233 | 23 | 105 | 0.0 | 0.0 | 0.00 | 0.00 | 0.00 | 99 | 1015.6 |
| 20260510033729 | 23 | 103 | 0.0 | 0.0 | 0.00 | 0.00 | 0.00 | 99 | 1015.6 |
| 20260510033227 | 23 | 106 | 0.0 | 0.0 | 0.00 | 0.00 | 0.00 | 99 | 1015.7 |
| 20260510032723 | 23 | 106 | 0.0 | 1.6 | 0.00 | 0.00 | 0.00 | 99 | 1015.7 |
| 20260510032219 | 23 | 106 | 0.0 | 0.0 | 0.00 | 0.00 | 0.00 | 99 | 1015.5 |
| 20260510031714 | 23 | 99 | 0.0 | 1.6 | 0.00 | 0.00 | 0.00 | 99 | 1015.5 |
| 20260510031210 | 23 | 117 | 0.0 | 0.0 | 0.00 | 0.00 | 0.00 | 99 | 1015.6 |
| 20260510030704 | 24 | 111 | 0.0 | 0.0 | 0.00 | 0.00 | 0.00 | 99 | 1015.7 |
| 20260510030202 | 24 | 97 | 0.0 | 1.6 | 0.00 | 0.00 | 0.00 | 99 | 1015.5 |
| 20260510025659 | 25 | 106 | 0.0 | 1.6 | 0.00 | 0.00 | 0.00 | 99 | 1015.6 |
| 20260510025156 | 25 | 101 | 0.0 | 3.2 | 0.00 | 0.00 | 0.00 | 99 | 1015.6 |
| 20260510024653 | 25 | 98 | 0.0 | 1.6 | 0.00 | 0.00 | 0.00 | 99 | 1015.5 |
| 20260510024149 | 25 | 114 | 1.6 | 3.2 | 0.00 | 0.00 | 0.00 | 99 | 1015.7 |
| 20260510023645 | 25 | 81 | 0.0 | 1.6 | 0.00 | 0.00 | 0.00 | 99 | 1015.8 |
| 20260510023142 | 25 | 90 | 0.0 | 1.6 | 0.00 | 0.00 | 0.00 | 99 | 1015.7 |
| 20260510022637 | 25 | 97 | 0.0 | 1.6 | 0.00 | 0.00 | 0.00 | 99 | 1015.6 |
| 20260510022132 | 25 | 99 | 0.0 | 1.6 | 0.00 | 0.00 | 0.00 | 99 | 1015.5 |
| 20260510021628 | 25 | 98 | 0.0 | 1.6 | 0.00 | 0.00 | 0.00 | 99 | 1015.4 |
| 20260510021126 | 25 | 96 | 0.0 | 3.2 | 0.00 | 0.00 | 0.00 | 99 | 1015.4 |
| 20260510020620 | 25 | 90 | 0.0 | 1.6 | 0.00 | 0.00 | 0.00 | 99 | 1015.2 |
| 20260510020115 | 25 | 114 | 0.0 | 3.2 | 0.00 | 0.00 | 0.00 | 99 | 1015.4 |
| 20260510015612 | 25 | 126 | 0.0 | 1.6 | 0.00 | 0.00 | 0.00 | 99 | 1015.2 |
| 20260510015108 | 26 | 99 | 1.6 | 3.2 | 0.00 | 0.00 | 0.00 | 99 | 1015.3 |
| 20260510014604 | 26 | 120 | 0.0 | 3.2 | 0.00 | 0.00 | 0.00 | 99 | 1015.2 |
| 20260510014101 | 26 | 90 | 0.0 | 3.2 | 0.00 | 0.00 | 0.00 | 99 | 1015.0 |
| 20260510013555 | 26 | 114 | 1.6 | 3.2 | 0.00 | 0.00 | 0.00 | 99 | 1014.8 |
| 20260510013052 | 26 | 126 | 0.0 | 1.6 | 0.00 | 0.00 | 0.00 | 99 | 1015.0 |
| 20260510012545 | 26 | 97 | 0.0 | 1.6 | 0.00 | 0.00 | 0.00 | 99 | 1014.8 |
| 20260510012043 | 26 | 106 | 0.0 | 3.2 | 0.00 | 0.00 | 0.00 | 99 | 1014.7 |
| 20260510011542 | 26 | 106 | 0.0 | 1.6 | 0.00 | 0.00 | 0.00 | 99 | 1014.7 |
| 20260510011038 | 27 | 117 | 1.6 | 3.2 | 0.00 | 0.00 | 0.00 | 99 | 1014.5 |
| 20260510010535 | 27 | 103 | 1.6 | 3.2 | 0.00 | 0.00 | 0.00 | 99 | 1014.6 |
| 20260510010032 | 27 | 96 | 3.2 | 3.2 | 0.00 | 0.00 | 0.00 | 99 | 1014.5 |
| 20260510005527 | 28 | 90 | 0.0 | 3.2 | 0.00 | 0.00 | 0.00 | 99 | 1014.5 |
| 20260510005026 | 28 | 101 | 0.0 | 3.2 | 0.00 | 0.00 | 0.00 | 99 | 1014.2 |
| 20260510004523 | 28 | 99 | 0.0 | 3.2 | 0.00 | 0.00 | 0.00 | 99 | 1014.5 |
| 20260510004021 | 28 | 83 | 1.6 | 3.2 | 0.00 | 0.00 | 0.00 | 99 | 1014.5 |
| 20260510003517 | 28 | 90 | 0.0 | 3.2 | 0.00 | 0.00 | 0.00 | 99 | 1014.5 |
| 20260510003013 | 29 | 90 | 0.0 | 3.2 | 0.00 | 0.00 | 0.00 | 99 | 1014.3 |
| 20260510002508 | 29 | 96 | 0.0 | 3.2 | 0.00 | 0.00 | 0.00 | 99 | 1014.3 |
| 20260510002005 | 30 | 103 | 3.2 | 4.8 | 0.00 | 0.00 | 0.00 | 99 | 1014.5 |
| 20260510001503 | 30 | 90 | 0.0 | 3.2 | 0.00 | 0.00 | 0.00 | 99 | 1014.3 |
| 20260510001001 | 30 | 69 | 0.0 | 4.8 | 0.00 | 0.00 | 0.00 | 99 | 1014.4 |
| 20260510000456 | 30 | 102 | 3.2 | 3.2 | 0.00 | 0.00 | 0.00 | 99 | 1014.4 |
| 20260509235953 | 30 | 90 | 0.0 | 3.2 | 0.00 | 0.00 | 0.00 | 99 | 1014.6 |
| 20260509235449 | 30 | 74 | 0.0 | 6.4 | 0.00 | 0.00 | 0.00 | 99 | 1014.4 |
| 20260509234946 | 30 | 104 | 4.8 | 4.8 | 0.00 | 0.00 | 0.00 | 99 | 1014.5 |
| 20260509234443 | 30 | 45 | 3.2 | 4.8 | 0.00 | 0.00 | 0.00 | 99 | 1014.8 |
| 20260509233941 | 30 | 98 | 0.0 | 4.8 | 0.00 | 0.00 | 0.00 | 99 | 1014.6 |
| 20260509233438 | 30 | 135 | 0.0 | 4.8 | 0.00 | 0.00 | 0.00 | 99 | 1014.7 |
| 20260509232934 | 30 | 99 | 0.0 | 4.8 | 0.00 | 0.00 | 0.00 | 99 | 1014.8 |
| 20260509232432 | 30 | 114 | 0.0 | 4.8 | 0.00 | 0.00 | 0.00 | 99 | 1014.7 |
| 20260509231927 | 30 | 69 | 1.6 | 4.8 | 0.00 | 0.00 | 0.00 | 99 | 1014.6 |
| 20260509231424 | 30 | 90 | 0.0 | 4.8 | 0.00 | 0.00 | 0.00 | 99 | 1014.6 |
| 20260509230922 | 30 | 120 | 0.0 | 4.8 | 0.00 | 0.00 | 0.00 | 99 | 1014.7 |
| 20260509230419 | 31 | 57 | 0.0 | 8.0 | 0.00 | 0.00 | 0.00 | 99 | 1014.6 |
| 20260509225915 | 30 | 148 | 3.2 | 8.0 | 0.00 | 0.00 | 0.00 | 99 | 1014.5 |
| 20260509225412 | 30 | 85 | 0.0 | 4.8 | 0.00 | 0.00 | 0.00 | 99 | 1014.6 |
| 20260509224908 | 30 | 106 | 3.2 | 6.4 | 0.00 | 0.00 | 0.00 | 99 | 1014.7 |
| 20260509224403 | 30 | 125 | 3.2 | 6.4 | 0.00 | 0.00 | 0.00 | 99 | 1014.5 |
| 20260509223901 | 31 | 132 | 0.0 | 6.4 | 0.00 | 0.00 | 0.00 | 99 | 1014.6 |
| 20260509223357 | 31 | 81 | 3.2 | 4.8 | 0.00 | 0.00 | 0.00 | 99 | 1014.5 |
| 20260509222854 | 30 | 58 | 4.8 | 4.8 | 0.00 | 0.00 | 0.00 | 99 | 1014.5 |
| 20260509222355 | 31 | 95 | 0.0 | 3.2 | 0.00 | 0.00 | 0.00 | 99 | 1014.5 |
| 20260509221850 | 30 | 75 | 3.2 | 3.2 | 0.00 | 0.00 | 0.00 | 99 | 1014.5 |
| 20260509221348 | 30 | 111 | 4.8 | 8.0 | 0.00 | 0.00 | 0.00 | 99 | 1014.4 |
| 20260509220843 | 30 | 129 | 3.2 | 4.8 | 0.00 | 0.00 | 0.00 | 99 | 1014.7 |
| 20260509220339 | 30 | 121 | 3.2 | 4.8 | 0.00 | 0.00 | 0.00 | 99 | 1014.5 |
| 20260509215835 | 30 | 8 | 1.6 | 8.0 | 0.00 | 0.00 | 0.00 | 99 | 1014.5 |
| 20260509215332 | 30 | 101 | 3.2 | 6.4 | 0.00 | 0.00 | 0.00 | 99 | 1014.4 |
| 20260509214829 | 30 | 108 | 3.2 | 4.8 | 0.00 | 0.00 | 0.00 | 99 | 1014.5 |
| 20260509214326 | 30 | 109 | 4.8 | 6.4 | 0.00 | 0.00 | 0.00 | 99 | 1014.5 |
| 20260509213823 | 30 | 120 | 3.2 | 4.8 | 0.00 | 0.00 | 0.00 | 99 | 1014.7 |
| 20260509213318 | 30 | 45 | 0.0 | 4.8 | 0.00 | 0.00 | 0.00 | 99 | 1014.6 |
| 20260509212816 | 30 | 97 | 4.8 | 6.4 | 0.00 | 0.00 | 0.00 | 99 | 1014.9 |
| 20260509212314 | 30 | 81 | 3.2 | 6.4 | 0.00 | 0.00 | 0.00 | 99 | 1015.2 |
| 20260509211809 | 30 | 60 | 1.6 | 4.8 | 0.00 | 0.00 | 0.00 | 99 | 1014.8 |
| 20260509211305 | 30 | 47 | 4.8 | 4.8 | 0.00 | 0.00 | 0.00 | 99 | 1014.7 |
| 20260509210802 | 30 | 115 | 3.2 | 6.4 | 0.00 | 0.00 | 0.00 | 99 | 1014.9 |
| 20260509210300 | 30 | 119 | 4.8 | 4.8 | 0.00 | 0.00 | 0.00 | 99 | 1014.9 |
| 20260509205759 | 30 | 58 | 4.8 | 8.0 | 0.00 | 0.00 | 0.00 | 99 | 1014.9 |
| 20260509205254 | 30 | 15 | 1.6 | 9.7 | 0.00 | 0.00 | 0.00 | 99 | 1015.2 |
| 20260509204750 | 30 | 95 | 3.2 | 4.8 | 0.00 | 0.00 | 0.00 | 99 | 1015.3 |
| 20260509204247 | 30 | 115 | 0.0 | 4.8 | 0.00 | 0.00 | 0.00 | 99 | 1015.2 |
| 20260509203743 | 30 | 129 | 4.8 | 4.8 | 0.00 | 0.00 | 0.00 | 99 | 1015.3 |
| 20260509203241 | 30 | 132 | 3.2 | 4.8 | 0.00 | 0.00 | 0.00 | 99 | 1015.3 |
| 20260509202736 | 30 | 115 | 3.2 | 6.4 | 0.00 | 0.00 | 0.00 | 99 | 1015.7 |
| 20260509202233 | 29 | 108 | 3.2 | 4.8 | 0.00 | 0.00 | 0.00 | 99 | 1015.5 |
| 20260509201727 | 30 | 114 | 4.8 | 4.8 | 0.00 | 0.00 | 0.00 | 99 | 1015.3 |
| 20260509201224 | 30 | 116 | 6.4 | 8.0 | 0.00 | 0.00 | 0.00 | 99 | 1015.6 |
| 20260509200720 | 30 | 157 | 1.6 | 6.4 | 0.00 | 0.00 | 0.00 | 99 | 1015.6 |
| 20260509200215 | 29 | 101 | 3.2 | 6.4 | 0.00 | 0.00 | 0.00 | 99 | 1015.6 |
| 20260509195711 | 29 | 81 | 0.0 | 9.7 | 0.00 | 0.00 | 0.00 | 99 | 1015.6 |
| 20260509195207 | 30 | 115 | 3.2 | 6.4 | 0.00 | 0.00 | 0.00 | 99 | 1015.5 |
| 20260509194701 | 29 | 102 | 4.8 | 11.3 | 0.00 | 0.00 | 0.00 | 99 | 1015.8 |
| 20260509194158 | 30 | 30 | 3.2 | 9.7 | 0.00 | 0.00 | 0.00 | 99 | 1015.7 |
| 20260509193654 | 29 | 144 | 0.0 | 6.4 | 0.00 | 0.00 | 0.00 | 99 | 1015.8 |
| 20260509193149 | 30 | 90 | 3.2 | 8.0 | 0.00 | 0.00 | 0.00 | 99 | 1015.8 |
| 20260509192646 | 30 | 128 | 3.2 | 6.4 | 0.00 | 0.00 | 0.00 | 99 | 1016.0 |
| 20260509192142 | 30 | 98 | 0.0 | 6.4 | 0.00 | 0.00 | 0.00 | 99 | 1015.8 |
| 20260509191641 | 30 | 19 | 9.7 | 9.7 | 0.00 | 0.00 | 0.00 | 99 | 1016.0 |
| 20260509191139 | 29 | 41 | 3.2 | 11.3 | 0.00 | 0.00 | 0.00 | 99 | 1015.9 |
| 20260509190635 | 28 | 90 | 0.0 | 4.8 | 0.00 | 0.00 | 0.00 | 99 | 1016.1 |
| 20260509190132 | 28 | 36 | 4.8 | 11.3 | 0.00 | 0.00 | 0.00 | 99 | 1016.1 |
| 20260509185630 | 28 | 99 | 3.2 | 6.4 | 0.00 | 0.00 | 0.00 | 99 | 1016.1 |
| 20260509185126 | 28 | 111 | 0.0 | 6.4 | 0.00 | 0.00 | 0.00 | 99 | 1016.2 |
| 20260509184624 | 28 | 114 | 0.0 | 6.4 | 0.00 | 0.00 | 0.00 | 99 | 1016.1 |
| 20260509184120 | 27 | 0 | 3.2 | 8.0 | 0.00 | 0.00 | 0.00 | 99 | 1016.3 |
| 20260509183616 | 27 | 66 | 1.6 | 8.0 | 0.00 | 0.00 | 0.00 | 99 | 1016.3 |
| 20260509183112 | 27 | 71 | 8.0 | 8.0 | 0.00 | 0.00 | 0.00 | 99 | 1016.4 |
| 20260509182608 | 27 | 7 | 0.0 | 8.0 | 0.00 | 0.00 | 0.00 | 99 | 1016.4 |
| 20260509182105 | 27 | 23 | 1.6 | 8.0 | 0.00 | 0.00 | 0.00 | 99 | 1016.4 |
| 20260509181603 | 27 | 13 | 8.0 | 9.7 | 0.00 | 0.00 | 0.00 | 99 | 1016.4 |
| 20260509181100 | 27 | 213 | 3.2 | 4.8 | 0.00 | 0.00 | 0.00 | 99 | 1016.7 |
| 20260509180556 | 27 | 72 | 4.8 | 11.3 | 0.00 | 0.00 | 0.00 | 99 | 1016.7 |
| 20260509180054 | 27 | 50 | 6.4 | 6.4 | 0.00 | 0.00 | 0.00 | 99 | 1016.6 |
| 20260509175549 | 27 | 60 | 1.6 | 8.0 | 0.00 | 0.00 | 0.00 | 99 | 1016.9 |
| 20260509175046 | 26 | 349 | 4.8 | 9.7 | 0.00 | 0.00 | 0.00 | 99 | 1017.0 |
| 20260509174542 | 27 | 106 | 1.6 | 4.8 | 0.00 | 0.00 | 0.00 | 99 | 1016.9 |
| 20260509174038 | 27 | 79 | 4.8 | 8.0 | 0.00 | 0.00 | 0.00 | 99 | 1017.0 |
| 20260509173532 | 27 | 132 | 0.0 | 8.0 | 0.00 | 0.00 | 0.00 | 99 | 1016.9 |
| 20260509173029 | 26 | 66 | 1.6 | 4.8 | 0.00 | 0.00 | 0.00 | 99 | 1017.2 |
| 20260509172526 | 26 | 126 | 1.6 | 9.7 | 0.00 | 0.00 | 0.00 | 99 | 1017.2 |
| 20260509172021 | 26 | 90 | 0.0 | 4.8 | 0.00 | 0.00 | 0.00 | 99 | 1017.4 |
| 20260509171518 | 26 | 30 | 6.4 | 11.3 | 0.00 | 0.00 | 0.00 | 99 | 1017.3 |
| 20260509171015 | 25 | 53 | 4.8 | 11.3 | 0.00 | 0.00 | 0.00 | 99 | 1017.4 |
| 20260509170510 | 26 | 27 | 6.4 | 6.4 | 0.00 | 0.00 | 0.00 | 99 | 1017.3 |
| 20260509170006 | 26 | 180 | 1.6 | 11.3 | 0.00 | 0.00 | 0.00 | 99 | 1017.2 |
| 20260509165505 | 25 | 345 | 1.6 | 9.7 | 0.00 | 0.00 | 0.00 | 99 | 1017.1 |
| 20260509165001 | 25 | 345 | 1.6 | 20.9 | 0.00 | 0.00 | 0.00 | 99 | 1017.3 |
| 20260509164457 | 25 | 356 | 3.2 | 11.3 | 0.00 | 0.00 | 0.00 | 99 | 1017.4 |
| 20260509163953 | 25 | 67 | 8.0 | 12.9 | 0.00 | 0.00 | 0.00 | 99 | 1017.2 |
| 20260509163451 | 25 | 294 | 4.8 | 11.3 | 0.00 | 0.00 | 0.00 | 99 | 1017.4 |
| 20260509162949 | 25 | 348 | 6.4 | 11.3 | 0.00 | 0.00 | 0.00 | 99 | 1017.2 |
| 20260509162449 | 25 | 72 | 4.8 | 8.0 | 0.00 | 0.00 | 0.00 | 99 | 1017.1 |
| 20260509161944 | 25 | 46 | 8.0 | 11.3 | 0.00 | 0.00 | 0.00 | 99 | 1017.4 |
| 20260509161441 | 25 | 341 | 4.8 | 14.5 | 0.00 | 0.00 | 0.00 | 99 | 1017.2 |
| 20260509160936 | 25 | 355 | 4.8 | 8.0 | 0.00 | 0.00 | 0.00 | 99 | 1017.3 |
| 20260509160432 | 24 | 39 | 6.4 | 11.3 | 0.00 | 0.00 | 0.00 | 99 | 1017.4 |
| 20260509155927 | 25 | 86 | 0.0 | 16.1 | 0.00 | 0.00 | 0.00 | 99 | 1017.1 |
| 20260509155424 | 24 | 90 | 1.6 | 8.0 | 0.00 | 0.00 | 0.00 | 99 | 1017.2 |
| 20260509154920 | 23 | 32 | 8.0 | 11.3 | 0.00 | 0.00 | 0.00 | 99 | 1017.3 |
| 20260509154417 | 24 | 26 | 3.2 | 9.7 | 0.00 | 0.00 | 0.00 | 99 | 1017.2 |
| 20260509153914 | 23 | 354 | 4.8 | 8.0 | 0.00 | 0.00 | 0.00 | 99 | 1017.4 |
| 20260509153411 | 23 | 14 | 1.6 | 11.3 | 0.00 | 0.00 | 0.00 | 99 | 1017.3 |
| 20260509152908 | 23 | 15 | 6.4 | 8.0 | 0.00 | 0.00 | 0.00 | 99 | 1017.2 |
| 20260509152404 | 23 | 298 | 4.8 | 8.0 | 0.00 | 0.00 | 0.00 | 99 | 1017.3 |
| 20260509151901 | 23 | 283 | 4.8 | 9.7 | 0.00 | 0.00 | 0.00 | 99 | 1017.3 |
| 20260509151357 | 23 | 21 | 3.2 | 8.0 | 0.00 | 0.00 | 0.00 | 99 | 1017.2 |
| 20260509150855 | 22 | 355 | 4.8 | 8.0 | 0.00 | 0.00 | 0.00 | 99 | 1017.4 |
| 20260509150353 | 22 | 60 | 0.0 | 8.0 | 0.00 | 0.00 | 0.00 | 99 | 1017.3 |
| 20260509145850 | 22 | 272 | 8.0 | 8.0 | 0.00 | 0.00 | 0.00 | 99 | 1017.5 |
| 20260509145345 | 22 | 9 | 3.2 | 8.0 | 0.00 | 0.00 | 0.00 | 99 | 1017.3 |
| 20260509144841 | 22 | 318 | 4.8 | 8.0 | 0.00 | 0.00 | 0.00 | 99 | 1017.6 |
| 20260509144338 | 22 | 356 | 3.2 | 9.7 | 0.00 | 0.00 | 0.00 | 99 | 1017.5 |
| 20260509143835 | 22 | 321 | 4.8 | 9.7 | 0.00 | 0.00 | 0.00 | 99 | 1017.5 |
| 20260509143333 | 22 | 40 | 4.8 | 8.0 | 0.00 | 0.00 | 0.00 | 99 | 1017.4 |
| 20260509142829 | 22 | 0 | 3.2 | 12.9 | 0.00 | 0.00 | 0.00 | 99 | 1017.4 |
| 20260509142325 | 22 | 339 | 3.2 | 8.0 | 0.00 | 0.00 | 0.00 | 99 | 1017.3 |
| 20260509141821 | 22 | 306 | 0.0 | 11.3 | 0.00 | 0.00 | 0.00 | 99 | 1017.2 |
| 20260509141318 | 22 | 12 | 6.4 | 12.9 | 0.00 | 0.00 | 0.00 | 99 | 1017.0 |
| 20260509140814 | 22 | 266 | 8.0 | 8.0 | 0.00 | 0.00 | 0.00 | 99 | 1017.2 |
| 20260509140312 | 22 | 308 | 8.0 | 9.7 | 0.00 | 0.00 | 0.00 | 99 | 1017.2 |
| 20260509135810 | 22 | 358 | 0.0 | 9.7 | 0.00 | 0.00 | 0.00 | 99 | 1017.2 |
| 20260509135307 | 22 | 35 | 6.4 | 11.3 | 0.00 | 0.00 | 0.00 | 99 | 1017.1 |
| 20260509134804 | 22 | 354 | 0.0 | 4.8 | 0.00 | 0.00 | 0.00 | 99 | 1016.9 |
| 20260509134301 | 21 | 339 | 4.8 | 8.0 | 0.00 | 0.00 | 0.00 | 99 | 1017.0 |
| 20260509133758 | 21 | 25 | 8.0 | 9.7 | 0.00 | 0.00 | 0.00 | 99 | 1017.1 |
| 20260509133254 | 21 | 297 | 1.6 | 6.4 | 0.00 | 0.00 | 0.00 | 99 | 1017.0 |
| 20260509132754 | 21 | 349 | 0.0 | 6.4 | 0.00 | 0.00 | 0.00 | 99 | 1016.6 |
| 20260509132252 | 21 | 98 | 0.0 | 4.8 | 0.00 | 0.00 | 0.00 | 99 | 1016.9 |
| 20260509131748 | 21 | 320 | 4.8 | 8.0 | 0.00 | 0.00 | 0.00 | 99 | 1017.1 |
| 20260509131245 | 21 | 292 | 4.8 | 6.4 | 0.00 | 0.00 | 0.00 | 99 | 1016.8 |
| 20260509130741 | 21 | 14 | 0.0 | 3.2 | 0.00 | 0.00 | 0.00 | 99 | 1016.8 |
| 20260509130237 | 21 | 270 | 0.0 | 0.0 | 0.00 | 0.00 | 0.00 | 99 | 1017.0 |
| 20260509125733 | 21 | 90 | 0.0 | 3.2 | 0.00 | 0.00 | 0.00 | 99 | 1016.6 |
| 20260509125231 | 21 | 286 | 0.0 | 1.6 | 0.00 | 0.00 | 0.00 | 99 | 1016.7 |
| 20260509124727 | 21 | 81 | 0.0 | 0.0 | 0.00 | 0.00 | 0.00 | 99 | 1017.0 |
| 20260509124223 | 20 | 82 | 0.0 | 3.2 | 0.00 | 0.00 | 0.00 | 99 | 1016.6 |
| 20260509123722 | 20 | 240 | 0.0 | 1.6 | 0.00 | 0.00 | 0.00 | 99 | 1016.7 |
| 20260509123219 | 20 | 90 | 0.0 | 0.0 | 0.00 | 0.00 | 0.00 | 99 | 1017.0 |
| 20260509122714 | 20 | 8 | 0.0 | 1.6 | 0.00 | 0.00 | 0.00 | 99 | 1016.9 |
| 20260509122211 | 20 | 90 | 0.0 | 0.0 | 0.00 | 0.00 | 0.00 | 99 | 1016.7 |
| 20260509121708 | 20 | 90 | 0.0 | 0.0 | 0.00 | 0.00 | 0.00 | 99 | 1016.8 |
| 20260509121206 | 20 | 90 | 0.0 | 0.0 | 0.00 | 0.00 | 0.00 | 99 | 1016.8 |
| 20260509120704 | 20 | 90 | 0.0 | 0.0 | 0.00 | 0.00 | 0.00 | 99 | 1016.8 |
| 20260509120201 | 20 | 90 | 0.0 | 0.0 | 0.00 | 0.00 | 0.00 | 99 | 1016.7 |
| 20260509115659 | 20 | 90 | 0.0 | 0.0 | 0.00 | 0.00 | 0.00 | 99 | 1016.5 |
| 20260509115156 | 20 | 90 | 0.0 | 0.0 | 0.00 | 0.00 | 0.00 | 99 | 1016.6 |
| 20260509114654 | 20 | 99 | 0.0 | 0.0 | 0.00 | 0.00 | 0.00 | 99 | 1016.5 |
| 20260509114153 | 20 | 90 | 0.0 | 0.0 | 0.00 | 0.00 | 0.00 | 99 | 1016.5 |
| 20260509113651 | 20 | 90 | 0.0 | 0.0 | 0.00 | 0.00 | 0.00 | 99 | 1016.3 |
| 20260509113147 | 20 | 99 | 0.0 | 0.0 | 0.00 | 0.00 | 0.00 | 99 | 1016.1 |
| 20260509112644 | 20 | 90 | 0.0 | 3.2 | 0.00 | 0.00 | 0.00 | 99 | 1015.9 |
| 20260509112141 | 21 | 120 | 3.2 | 3.2 | 0.00 | 0.00 | 0.00 | 99 | 1015.9 |
| 20260509111639 | 21 | 111 | 1.6 | 3.2 | 0.00 | 0.00 | 0.00 | 99 | 1015.8 |
| 20260509111135 | 20 | 90 | 0.0 | 1.6 | 0.00 | 0.00 | 0.00 | 99 | 1015.8 |
| 20260509110632 | 20 | 82 | 1.6 | 1.6 | 0.00 | 0.00 | 0.00 | 99 | 1015.8 |
| 20260509110129 | 20 | 81 | 0.0 | 1.6 | 0.00 | 0.00 | 0.00 | 99 | 1015.8 |
| 20260509105627 | 20 | 90 | 0.0 | 1.6 | 0.00 | 0.00 | 0.00 | 99 | 1015.6 |
| 20260509105125 | 20 | 74 | 0.0 | 0.0 | 0.00 | 0.00 | 0.00 | 99 | 1015.8 |
| 20260509104622 | 21 | 74 | 0.0 | 3.2 | 0.00 | 0.00 | 0.00 | 99 | 1015.3 |
| 20260509104118 | 21 | 90 | 0.0 | 1.6 | 0.00 | 0.00 | 0.00 | 99 | 1015.5 |
| 20260509103616 | 20 | 99 | 0.0 | 3.2 | 0.00 | 0.00 | 0.00 | 99 | 1015.4 |
| 20260509103114 | 20 | 139 | 3.2 | 3.2 | 0.00 | 0.00 | 0.00 | 99 | 1015.4 |
| 20260509102611 | 21 | 90 | 0.0 | 3.2 | 0.00 | 0.00 | 0.00 | 99 | 1015.4 |
| 20260509102108 | 21 | 106 | 1.6 | 3.2 | 0.00 | 0.00 | 0.00 | 99 | 1015.4 |
| 20260509101604 | 21 | 114 | 0.0 | 1.6 | 0.00 | 0.00 | 0.00 | 99 | 1015.6 |
| 20260509101101 | 21 | 111 | 1.6 | 1.6 | 0.00 | 0.00 | 0.00 | 99 | 1015.6 |
| 20260509100558 | 21 | 106 | 0.0 | 3.2 | 0.00 | 0.00 | 0.00 | 99 | 1015.4 |
| 20260509100056 | 21 | 99 | 0.0 | 1.6 | 0.00 | 0.00 | 0.00 | 99 | 1015.4 |
| 20260509095552 | 21 | 84 | 3.2 | 3.2 | 0.00 | 0.00 | 0.00 | 99 | 1015.6 |
| 20260509095050 | 21 | 35 | 0.0 | 1.6 | 0.00 | 0.00 | 0.00 | 99 | 1015.4 |
| 20260509094545 | 21 | 97 | 1.6 | 3.2 | 0.00 | 0.00 | 0.00 | 99 | 1015.4 |
| 20260509094043 | 21 | 74 | 1.6 | 1.6 | 0.00 | 0.00 | 0.00 | 99 | 1015.5 |
| 20260509093541 | 21 | 90 | 1.6 | 4.8 | 0.00 | 0.00 | 0.00 | 99 | 1015.4 |
| 20260509093038 | 21 | 21 | 3.2 | 4.8 | 0.00 | 0.00 | 0.00 | 99 | 1015.3 |
| 20260509092536 | 21 | 48 | 3.2 | 6.4 | 0.00 | 0.00 | 0.00 | 99 | 1015.2 |
| 20260509092035 | 21 | 0 | 3.2 | 3.2 | 0.00 | 0.00 | 0.00 | 99 | 1015.2 |
| 20260509091532 | 20 | 303 | 3.2 | 3.2 | 0.00 | 0.00 | 0.00 | 99 | 1015.3 |
| 20260509091028 | 20 | 81 | 0.0 | 3.2 | 0.00 | 0.00 | 0.00 | 99 | 1014.4 |
| 20260509090526 | 20 | 54 | 0.0 | 4.8 | 0.00 | 0.00 | 0.00 | 99 | 1014.0 |
| 20260509090023 | 20 | 120 | 1.6 | 4.8 | 0.00 | 0.00 | 0.00 | 99 | 1013.8 |
| 20260509085520 | 20 | 117 | 1.6 | 4.8 | 0.00 | 0.00 | 0.00 | 99 | 1014.0 |
| 20260509085016 | 20 | 99 | 0.0 | 3.2 | 0.00 | 0.00 | 0.00 | 99 | 1014.0 |
| 20260509084513 | 20 | 114 | 1.6 | 3.2 | 0.00 | 0.00 | 0.00 | 99 | 1014.1 |
| 20260509084010 | 20 | 111 | 1.6 | 8.0 | 0.00 | 0.00 | 0.00 | 99 | 1014.3 |
| 20260509083508 | 20 | 127 | 3.2 | 4.8 | 0.00 | 0.00 | 0.00 | 99 | 1014.2 |
| 20260509083004 | 21 | 135 | 0.0 | 4.8 | 0.00 | 0.00 | 0.00 | 99 | 1014.4 |
| 20260509082502 | 21 | 135 | 0.0 | 4.8 | 0.00 | 0.00 | 0.00 | 99 | 1014.6 |
| 20260509081959 | 21 | 151 | 0.0 | 4.8 | 0.00 | 0.00 | 0.00 | 99 | 1014.8 |
| 20260509081456 | 21 | 90 | 0.0 | 3.2 | 0.00 | 0.00 | 0.00 | 99 | 1014.9 |
| 20260509080952 | 21 | 196 | 3.2 | 4.8 | 0.00 | 0.00 | 0.00 | 99 | 1015.2 |
| 20260509080451 | 21 | 105 | 0.0 | 3.2 | 0.00 | 0.00 | 0.00 | 99 | 1015.4 |
| 20260509075949 | 21 | 82 | 1.6 | 3.2 | 0.00 | 0.00 | 0.00 | 99 | 1015.7 |